Location: Arroyo Grande
(40.2671°N, 4.2512°W)
Time: 05:21:05
(UTC+00:00)

Cosmos 1892 Rocket - Pass Details

Date: 03 February 2023
Orbit: 605 x 631 km, 82.5° (Epoch: 25 March)

Event Time Altitude Azimuth Distance (km) Brightness Sun altitude
Rises 18:38:56 0° 177° (S) 2,898 7.1 -12.0°
Reaches altitude 10° 18:41:11 10° 173° (S) 1,992 6.2 -12.5°
Maximum altitude 18:45:32 60° 94° (E) 718 3.6 -13.3°
Drops below altitude 10° 18:49:52 10° 15° (NNE) 1,991 5.9 -14.1°
Sets 18:52:07 0° 12° (NNE) 2,897 6.8 -14.5°
